Television Programming Schedule

Easy Button: Channel 8 | Channel 9 | Channel 96| All
E.g., Sep 24 2020
E.g., Sep 24 2020
Ch Time Date Title Duration (hh:mm:ss) edit
8 8:00am Sep 24, 2020 Tempest Tableau: Ep 608 01:59:55
9 8:00am Sep 24, 2020 Democracy Now! 00:59:55
96 8:30am Sep 24, 2020 Effort Pour Christ: September 19, 2020 00:58:27
9 9:00am Sep 24, 2020 The Stephanie Miller Show 00:59:59
96 9:30am Sep 24, 2020 The Passionate Pursuits of Angela Bowen 00:25:45
96 9:55am Sep 24, 2020 Black Lives Matter in Cape Cod 00:03:15
8 10:00am Sep 24, 2020 Scholars Strategy Network: No Jargon Podcast: Ep 208 00:29:59
9 10:00am Sep 24, 2020 The David Pakman Show 00:59:59
96 10:00am Sep 24, 2020 Sidewalks Entertainment: Maitreyi Ramakrishnan 00:28:28
8 10:30am Sep 24, 2020 The World Fusion Show: Ep 81: Kenny Endo 00:26:08
96 10:30am Sep 24, 2020 Strata: September 2020: The Medici Fortress of Arezzo 00:28:30
8 11:00am Sep 24, 2020 Yoga for Seniors: Ep 02 with Barbara Scott 00:58:07
9 11:00am Sep 24, 2020 Rising Up with Sonali 00:59:55
96 11:00am Sep 24, 2020 Tele Galaxie: September 21, 2020 00:59:59
8 12:00pm Sep 24, 2020 unPlanned: Jeremy Crandell 00:38:06
9 12:00pm Sep 24, 2020 Democracy Now! 00:59:55
96 12:00pm Sep 24, 2020 Tele Magazine: September 6, 2020 00:59:10
8 12:40pm Sep 24, 2020 Work from Home: Cinematographer Photographer in Italy 00:18:44
8 1:00pm Sep 24, 2020 The Chico and Bman Show: Ep 178 with Reminiscing Buzz Band 00:28:29
9 1:00pm Sep 24, 2020 MIT Volpe Block Party 02:15:06
96 1:00pm Sep 24, 2020 Massachusetts in the Woman Suffrage Movement 01:28:46
8 1:30pm Sep 24, 2020 Under Pandemic - Baolong Song 00:03:32
8 1:35pm Sep 24, 2020 Filipinos in America, Misidentity Mental Health 00:08:24
8 1:43pm Sep 24, 2020 Black Lives Matter - Cambridge Common 00:05:43
8 1:49pm Sep 24, 2020 Not One More! March 00:02:35
8 1:51pm Sep 24, 2020 Juice Rap News: Episode 32: MSMBS News on Black Lives Matter?, 2015 00:06:37
8 1:58pm Sep 24, 2020 A Place in My Shoes 00:01:03
8 1:59pm Sep 24, 2020 Expozed Models 00:00:30
8 2:00pm Sep 24, 2020 Music Mania TV: December 26, 2019 00:29:59
8 2:30pm Sep 24, 2020 Meet the Problem Solvers: Ep 17 00:27:03
96 2:30pm Sep 24, 2020 unPlanned: June 30, 2020, CA Webb 00:24:24
96 2:54pm Sep 24, 2020 Dawn 00:01:27
96 2:55pm Sep 24, 2020 City of Dark Shadows 00:03:27
96 2:59pm Sep 24, 2020 Camera Stop Motion Short 00:00:26
8 3:00pm Sep 24, 2020 Information Philosopher: The Ships of Theseus and Otto Neurath 00:59:59
96 3:00pm Sep 24, 2020 Mahibere Kidusan TV: September 21, 2020 00:59:55
9 3:15pm Sep 24, 2020 Starlight Square 2020! 00:10:54
9 3:26pm Sep 24, 2020 CDC PSA: Coronavirus COVID-19 00:00:29
9 3:26pm Sep 24, 2020 CDC PSA: Protect Yourself 00:01:00
9 3:27pm Sep 24, 2020 PSA: Why Get Tested for COVID-19 (PORTUGUESE). A importancia de fazer o teste 00:00:30
9 3:27pm Sep 24, 2020 PSA: Coping with Stress and Fear from COVID-19 00:00:30
9 3:28pm Sep 24, 2020 PSA: How Young People Can Help Stop COVID-19 by Social Distancing 00:00:43
9 3:29pm Sep 24, 2020 PSA: Why Get Tested for COVID-19 00:00:29
9 3:30pm Sep 24, 2020 Science360 Dispatches from the Cutting Edge Ep 80 00:27:58
8 4:00pm Sep 24, 2020 New England Pride TV: Season 08 Ep 05 00:29:29
9 4:00pm Sep 24, 2020 What We Should Know with Rob Moir 00:27:00
96 4:00pm Sep 24, 2020 Bate Papo Com Shirley: Ep 183 00:59:05
9 4:27pm Sep 24, 2020 Not One More! March 00:02:35
8 4:30pm Sep 24, 2020 Physician Focus: Using Your Coverage in the New Year 00:29:01
9 4:30pm Sep 24, 2020 Unsurpassable Justice with Brother RA 00:27:00
9 4:57pm Sep 24, 2020 Dawn 00:01:27
9 4:58pm Sep 24, 2020 My Color Presentation 00:01:06
9 4:59pm Sep 24, 2020 Camera Stop Motion Short 00:00:26
8 5:00pm Sep 24, 2020 Summer Media Institute Virtual Screening 2020 00:56:38
9 5:00pm Sep 24, 2020 Happiness in the City with Barbara Noll 00:27:00
96 5:00pm Sep 24, 2020 Trinity Temple Live 00:59:00
9 5:27pm Sep 24, 2020 CDC PSA: Protect Yourself 00:01:00
9 5:28pm Sep 24, 2020 PSA: Department of Labor, Wage and Hour Division (Spanish) 00:01:06
9 5:29pm Sep 24, 2020 PSA: Why Get Tested for COVID-19 (SPANISH). La importancia de hacerse la prueba 00:00:30
9 5:29pm Sep 24, 2020 CDC PSA: STOP Sick 00:00:23
9 5:30pm Sep 24, 2020 CCTV Live Community Programming 00:27:00
8 5:56pm Sep 24, 2020 HOT STEAM 03 TRAILER 00:00:59
9 5:57pm Sep 24, 2020 HOT STEAM 03 TRAILER 00:00:59
8 5:57pm Sep 24, 2020 Seagulls 00:01:11
9 5:57pm Sep 24, 2020 Seagulls 00:01:11
8 5:58pm Sep 24, 2020 Jester's Journey 00:00:45
9 5:59pm Sep 24, 2020 Jester's Journey 00:00:45
8 5:59pm Sep 24, 2020 Camera Stop Motion Short 00:00:26
8 6:00pm Sep 24, 2020 Science Club for Girls: Engineering Adventures! 00:28:27
9 6:00pm Sep 24, 2020 MJ Fanman with Wayne Robinson 00:27:00
96 6:00pm Sep 24, 2020 Cambridge Womxn's History: Out of the Archives, Into the Streets 01:18:41
9 6:27pm Sep 24, 2020 Not One More! March 00:02:35
8 6:30pm Sep 24, 2020 Chopped Junior CADC 00:16:25
9 6:30pm Sep 24, 2020 The Joe Show 00:27:00
8 6:46pm Sep 24, 2020 Quarantine Confessionals: Kids' Perspective 00:01:44
8 6:50pm Sep 24, 2020 Crystal Drawing Show 00:05:45
9 6:57pm Sep 24, 2020 CDC PSA: How to Make Your own Face Covering 00:00:45
9 6:57pm Sep 24, 2020 CDC PSA: Coronavirus COVID-19 00:00:29
9 6:58pm Sep 24, 2020 PSA: Why Get Tested for COVID-19 00:00:29
9 6:58pm Sep 24, 2020 PSA: COVID-19: Department of Labor, Wage and Hour Division 00:01:06
8 7:00pm Sep 24, 2020 Racism in America 01:30:29
9 7:00pm Sep 24, 2020 The Passionate Pursuits of Angela Bowen 00:25:45
96 7:18pm Sep 24, 2020 PSA: Why Get Tested for COVID-19 (SPANISH). La importancia de hacerse la prueba 00:00:30
96 7:19pm Sep 24, 2020 A Day in My Life in Quarantine 00:04:19
96 7:23pm Sep 24, 2020 PSA: COVID-19: Department of Labor, Wage and Hour Division 00:00:36
96 7:24pm Sep 24, 2020 PSA: Why Get Tested for COVID-19 00:00:29
96 7:24pm Sep 24, 2020 Quarantine Confessionals: Josh Artman 00:05:15
9 7:25pm Sep 24, 2020 PSA: Learn More About COVID-19 Testing (PORTUGUESE). Visao geral do teste 00:00:30
9 7:26pm Sep 24, 2020 PSA: Why Get Tested for COVID-19 (PORTUGUESE). A importancia de fazer o teste 00:00:30
9 7:26pm Sep 24, 2020 PSA: MA Nat. Guard Flyover on National Nurses Day 00:01:03
9 7:27pm Sep 24, 2020 PSA: Learn More About COVID-19 Testing (SPANISH). Informacion general sobre la prueba 00:00:30
9 7:28pm Sep 24, 2020 PSA: Learn More About COVID-19 Testing (SIMPLIFIED CHINESE) 00:00:30
9 7:28pm Sep 24, 2020 PSA: Learn More About COVID-19 Testing (VIETNAMESE). Tong Quan ve Xet Nghiem 00:00:30
9 7:29pm Sep 24, 2020 Quarantine Confessional Song 00:00:20
9 7:30pm Sep 24, 2020 Not for Nothin: COVID-19 and Intersectionality 00:29:00
96 7:30pm Sep 24, 2020 The Faith Show: Ep 05 00:27:06
9 8:00pm Sep 24, 2020 Kim Barnes Live Sep 22 00:30:08
96 8:00pm Sep 24, 2020 Tele Soleil 00:58:47
9 8:30pm Sep 24, 2020 PSA: COVID-19: Department of Labor, Wage and Hour Division 00:00:36
8 8:30pm Sep 24, 2020 PSA: Why Get Tested for COVID-19 00:00:29
9 8:30pm Sep 24, 2020 PSA: Learn More About COVID-19 Testing (PORTUGUESE). Visao geral do teste 00:00:30
8 8:30pm Sep 24, 2020 Work from Home: Assistant to Talent Agent in LA 00:12:54
9 8:31pm Sep 24, 2020 Quarantine Confessional Song 00:00:20
9 8:31pm Sep 24, 2020 PSA: Learn More About COVID-19 Testing (SIMPLIFIED CHINESE) 00:00:30
9 8:32pm Sep 24, 2020 Quarantine Confessionals: Kids' Perspective 00:01:44
9 8:33pm Sep 24, 2020 PSA: A Message From Hospitals: Don't Avoid Emergency Care 00:01:00
9 8:34pm Sep 24, 2020 PSA: Why Get Tested for COVID-19 00:00:29
9 8:35pm Sep 24, 2020 Quarantine Confessionals: Peter Levine 00:02:39
9 8:37pm Sep 24, 2020 PSA: Department of Labor, Wage and Hour Division (Spanish) 00:01:06
9 8:39pm Sep 24, 2020 PSA: Why Get Tested for COVID-19 (PORTUGUESE). A importancia de fazer o teste 00:00:30
9 8:40pm Sep 24, 2020 Starlight Square 2020! 00:10:54
8 8:43pm Sep 24, 2020 PSA: Delivery Workers (1:21) 00:01:21
8 8:45pm Sep 24, 2020 PSA: Why Get Tested for COVID-19 (SPANISH). La importancia de hacerse la prueba 00:00:30
8 8:45pm Sep 24, 2020 The World: Food Distribution during COVID-19 00:01:20
8 8:47pm Sep 24, 2020 PSA: MA Nat. Guard Flyover on National Nurses Day 00:01:03
8 8:48pm Sep 24, 2020 PSA: Why Get Tested for COVID-19 (PORTUGUESE). A importancia de fazer o teste 00:00:30
8 8:48pm Sep 24, 2020 PSA: Learn More About COVID-19 Testing (VIETNAMESE). Tong Quan ve Xet Nghiem 00:00:30
8 8:49pm Sep 24, 2020 COVID Related Poisonings Webinar 00:09:43
9 8:50pm Sep 24, 2020 BLM Protest 00:05:43
9 8:56pm Sep 24, 2020 Black Lives Matter in Cape Cod 00:03:15
8 8:58pm Sep 24, 2020 PSA: How Young People Can Help Stop COVID-19 by Social Distancing 00:00:43
8 8:59pm Sep 24, 2020 Quarantine Confessional Song 00:00:20
8 9:00pm Sep 24, 2020 SOM ARTS: Poets from December 6, 2019 00:29:59
9 9:00pm Sep 24, 2020 Democracy Now! 00:59:55
96 9:00pm Sep 24, 2020 Colores Latinos TV: Medios de Comunicacion 00:29:59
8 9:30pm Sep 24, 2020 Somos Tu Mundo: Xocimilco Monceieur 00:29:59
96 9:30pm Sep 24, 2020 Chaos to Calm: Interview with Sally Lloyd-Jones 00:29:22
8 10:00pm Sep 24, 2020 Thorium Community Awareness: Ep 29: Ed Pheil, Molten Chloride Salt Fast Reactor 00:28:01
9 10:00pm Sep 24, 2020 The Big Picture with Thom Hartmann 00:59:59
96 10:00pm Sep 24, 2020 Tele Anacaona de Boston: September 19, 2020 00:55:09
8 10:30pm Sep 24, 2020 Cambridge Comedy Underground: Season 02 Ep 04, January 21, 2020 01:28:42
96 10:55pm Sep 24, 2020 PSA: Why Get Tested for COVID-19 (PORTUGUESE). A importancia de fazer o teste 00:00:30
96 10:55pm Sep 24, 2020 PSA: Department of Labor, Wage and Hour Division (Spanish) 00:01:06
96 10:56pm Sep 24, 2020 CDC PSA: COVID-19 & Ibuprofen 00:01:08
96 10:57pm Sep 24, 2020 PSA: How Young People Can Help Stop COVID-19 by Social Distancing 00:00:43
96 10:58pm Sep 24, 2020 PSA: Why Get Tested for COVID-19 (SPANISH). La importancia de hacerse la prueba 00:00:30
96 10:59pm Sep 24, 2020 PSA: COVID-19: Department of Labor, Wage and Hour Division 00:00:36
96 10:59pm Sep 24, 2020 CDC PSA: STOP Sick 00:00:23
9 11:00pm Sep 24, 2020 The David Pakman Show 00:59:59
96 11:00pm Sep 24, 2020 African Ascent: Danielle Boaz 00:54:54
96 11:54pm Sep 24, 2020 PSA: Covid-19 Testing in Cambridge 00:02:11
96 11:57pm Sep 24, 2020 PSA: Why Get Tested for COVID-19 00:00:29
96 11:57pm Sep 24, 2020 CDC PSA: COVID-19 Surfaces Air 00:01:31
96 11:59pm Sep 24, 2020 PSA: How Young People Can Help Stop COVID-19 by Social Distancing 00:00:43